CAPE
0 0 0 0 0 0 0 0 0 0 0 0 0 0 0 0 0 0 1 174 383 440 931 788 754 675 629 557 380 309 389 393 342 297 261 212 119 90 99 141 226 336 386 390 370 447 462 403 250
0 0 0 0 0 0 0 0 0 0 0 0 0 0 0 0 0 28 273 143 354 588 877 838 681 586 544 445 324 345 454 451 446 364 307 313 373 292 160 73 44 56 85 127 212 250 234 216 249
0 0 0 0 0 0 0 0 0 0 0 0 0 0 0 0 1 131 233 356 461 611 774 781 591 496 481 416 377 395 371 373 460 431 343 355 348 321 258 202 105 56 61 65 76 65 53 74 130
0 0 0 0 0 0 0 0 0 0 0 0 0 0 0 0 45 206 473 543 546 607 699 624 501 425 435 382 362 339 360 344 331 310 295 268 215 157 113 115 89 49 20 40 45 44 49 36 17
0 0 0 0 0 0 0 0 0 0 0 0 0 0 0 0 26 466 541 607 523 519 548 577 504 476 419 383 346 327 318 294 258 205 201 181 121 77 66 48 55 25 49 82 105 98 78 56 52
0 0 0 0 0 0 0 0 0 0 0 0 0 0 0 0 301 415 460 475 415 347 439 465 450 406 377 368 305 226 155 159 143 87 17 0 0 0 0 0 0 0 0 0 0 0 0 0 0
0 0 0 0 0 0 0 0 0 0 0 0 0 0 0 0 288 296 314 246 284 285 266 235 205 164 138 107 65 20 3 0 0 0 0 0 0 0 0 0 0 0 0 0 0 0 0 0 0
0 0 0 0 0 0 0 0 0 0 0 0 0 0 0 0 204 92 57 88 123 116 151 76 78 29 1 0 0 0 0 0 0 0 0 0 0 0 0 0 0 0 0 0 0 0 0 0 0
0 0 0 0 0 0 0 0 0 0 0 0 0 0 0 21 37 5 19 24 46 16 9 11 0 0 0 0 0 0 0 0 0 0 0 0 0 0 0 0 0 0 0 0 0 0 0 0 0
0 0 0 0 0 0 0 0 0 0 0 0 0 0 0 26 46 57 26 60 14 4 0 0 0 0 0 0 0 0 0 0 0 0 0 0 0 0 0 0 0 0 0 0 0 0 0 0 0
0 0 0 0 0 0 0 0 0 0 0 0 0 0 0 30 65 48 5 7 3 0 0 0 0 0 0 0 0 0 0 0 0 0 0 0 0 0 0 0 0 0 0 0 0 0 0 0 0
0 0 0 0 0 0 0 0 0 0 0 0 0 0 0 5 60 61 24 0 0 0 0 0 0 0 0 0 0 0 0 0 0 0 0 0 0 0 0 0 0 0 0 0 0 0 0 0 0
0 0 0 0 0 0 0 0 0 0 0 0 0 0 0 0 17 4 0 0 0 0 0 0 0 0 0 0 0 0 0 0 0 0 0 0 0 0 0 0 0 0 0 0 0 0 0 0 0
0 0 0 0 0 0 0 0 0 0 0 0 0 0 0 0 0 0 0 0 0 0 0 0 0 0 0 0 0 0 0 0 0 0 0 0 0 0 0 0 0 0 0 0 0 0 0 0 0
0 0 0 0 0 0 0 0 0 0 0 0 0 0 0 0 0 0 0 0 0 0 0 0 0 0 0 0 0 0 0 0 0 0 0 0 0 0 0 0 0 0 0 0 0 0 0 0 0
0 0 0 0 0 0 0 0 0 0 0 0 0 0 0 0 0 0 0 0 0 0 0 0 0 0 0 0 0 0 0 0 0 0 0 0 0 0 0 0 0 0 0 0 0 0 0 0 0
0 0 0 0 0 0 0 0 0 0 0 0 0 0 0 0 0 0 0 0 0 0 0 0 0 0 0 0 0 0 0 0 0 0 0 0 0 0 0 0 0 0 0 0 0 0 0 0 0
0 0 0 0 0 0 0 0 0 0 0 0 0 0 0 0 0 0 0 0 0 0 0 0 0 0 0 0 0 0 0 0 0 0 0 0 0 0 0 0 0 0 0 0 0 0 0 0 0
0 0 0 0 0 0 0 0 0 0 0 0 0 0 0 0 0 0 0 0 0 0 0 0 0 0 0 0 0 0 0 0 0 0 0 0 0 0 0 0 0 0 0 0 0 0 0 0 0
0 0 0 0 0 0 0 0 0 0 0 0 0 0 0 0 0 0 0 0 0 0 0 0 0 0 0 0 0 0 0 0 0 0 0 0 0 0 0 0 0 0 0 0 0 0 0 0 0
0 0 0 0 0 0 0 0 0 0 0 0 0 0 0 0 0 0 0 0 0 0 0 0 0 0 0 0 0 0 0 0 0 0 0 0 0 0 0 0 0 0 0 0 0 0 0 0 0
0 0 0 0 0 0 0 0 0 0 0 0 0 0 0 0 0 0 0 0 0 0 0 0 0 0 0 0 0 0 0 0 0 0 0 0 0 0 0 0 0 0 0 0 0 0 0 0 0
0 0 0 0 0 0 0 0 0 0 0 0 0 0 0 0 0 0 0 0 0 0 0 0 0 0 0 0 0 0 0 0 0 0 0 0 0 0 0 0 0 0 0 0 0 0 0 0 1
0 0 0 0 0 0 0 0 0 0 0 0 0 0 0 0 0 0 0 0 0 0 0 0 0 0 0 0 0 0 0 0 0 0 0 0 0 0 0 0 0 0 0 0 0 0 0 0 0
0 0 0 0 0 0 0 0 0 0 0 0 0 0 0 0 0 0 0 0 0 0 0 0 0 0 0 0 0 0 0 0 0 0 0 0 0 0 0 0 0 0 0 0 0 0 0 0 0
0 0 0 0 0 0 0 0 0 0 0 0 0 0 0 0 0 0 0 0 0 0 0 0 0 0 0 0 0 0 0 0 0 0 0 0 0 0 0 0 0 0 0 0 0 0 1 1 2
0 0 0 0 0 0 0 0 0 0 0 0 0 0 0 0 0 0 0 0 0 0 0 0 0 0 0 0 0 0 0 0 0 0 0 0 0 0 0 0 0 0 0 0 0 0 0 0 1
0 0 0 0 0 0 0 0 0 0 0 0 0 0 0 0 0 0 0 0 0 0 0 0 0 0 0 0 0 0 0 0 0 0 0 0 0 0 0 0 0 0 0 0 0 0 0 1 2
0 0 0 0 0 0 0 0 0 0 0 0 0 0 0 0 0 0 0 0 0 0 0 0 0 0 0 0 0 0 0 0 0 0 0 0 0 0 0 0 0 0 0 0 0 0 0 1 1
0 0 0 0 0 0 0 0 0 0 0 0 0 0 0 0 0 0 0 0 0 0 0 0 0 0 0 0 0 0 0 0 0 0 0 0 0 0 0 0 0 0 0 0 0 0 0 1 2
CIN
-0 -0 -0 -0 -0 -0 -0 -0 -0 -0 -0 -0 -0 -0 -0 -0 -0 -0 -53 -204 -163 -136 -37 -40 -25 -20 -10 -9 -18 -15 -1 -0 -0 -0 -1 -5 -25 -39 -31 -28 -15 -2 -0 -0 -0 -9 -8 -6 -9
-0 -0 -0 -0 -0 -0 -0 -0 -0 -0 -0 -0 -0 -0 -0 -0 -0 -169 -150 -198 -129 -88 -27 -29 -23 -23 -20 -21 -25 -11 -1 -0 -0 -0 -3 -1 -0 -4 -17 -30 -40 -42 -35 -25 -6 -3 -6 -7 -5
-0 -0 -0 -0 -0 -0 -0 -0 -0 -0 -0 -0 -0 -0 -0 -0 -36 -201 -177 -130 -92 -62 -30 -20 -24 -33 -21 -18 -13 -3 -2 -1 -0 -0 -0 -3 -0 -0 -0 -0 -9 -29 -38 -35 -16 -25 -51 -40 -8
-0 -0 -0 -0 -0 -0 -0 -0 -0 -0 -0 -0 -0 -0 -0 -0 -245 -183 -113 -85 -77 -63 -43 -32 -31 -41 -22 -12 -7 -4 -1 -0 -0 -0 -0 -0 -0 -4 -7 -2 -6 -34 -72 -50 -70 -84 -66 -102 -119
-0 -0 -0 -0 -0 -0 -0 -0 -0 -0 -0 -0 -0 -0 -0 -0 -76 -106 -84 -70 -80 -76 -51 -32 -23 -17 -15 -11 -7 -4 -0 -0 -1 -3 -1 -2 -9 -34 -39 -44 -43 -39 -26 -25 -26 -25 -46 -64 -67
-0 -0 -0 -0 -0 -0 -0 -0 -0 -0 -0 -0 -0 -0 -0 -0 -130 -103 -84 -83 -83 -85 -57 -36 -22 -16 -10 -13 -23 -41 -51 -35 -32 -58 -35 -0 -0 -0 -0 -0 -0 -0 -0 -0 -0 -0 -0 -0 -0
-0 -0 -0 -0 -0 -0 -0 -0 -0 -0 -0 -0 -0 -0 -0 -0 -138 -134 -115 -130 -108 -90 -78 -79 -86 -102 -112 -137 -165 -207 -42 -0 -0 -0 -0 -0 -0 -0 -0 -0 -0 -0 -0 -0 -0 -0 -0 -0 -0
-0 -0 -0 -0 -0 -0 -0 -0 -0 -0 -0 -0 -0 -0 -0 -0 -174 -206 -192 -148 -123 -147 -138 -179 -199 -252 -55 -0 -0 -0 -0 -0 -0 -0 -0 -0 -0 -0 -0 -0 -0 -0 -0 -0 -0 -0 -0 -0 -0
-0 -0 -0 -0 -0 -0 -0 -0 -0 -0 -0 -0 -0 -0 -0 -257 -284 -87 -239 -229 -203 -266 -177 -300 -0 -0 -0 -0 -0 -0 -0 -0 -0 -0 -0 -0 -0 -0 -0 -0 -0 -0 -0 -0 -0 -0 -0 -0 -0
-0 -0 -0 -0 -0 -0 -0 -0 -0 -0 -0 -0 -0 -0 -0 -254 -272 -235 -262 -217 -270 -229 -0 -0 -0 -0 -0 -0 -0 -0 -0 -0 -0 -0 -0 -0 -0 -0 -0 -0 -0 -0 -0 -0 -0 -0 -0 -0 -0
-0 -0 -0 -0 -0 -0 -0 -0 -0 -0 -0 -0 -0 -0 -0 -261 -234 -249 -328 -283 -298 -0 -0 -0 -0 -0 -0 -0 -0 -0 -0 -0 -0 -0 -0 -0 -0 -0 -0 -0 -0 -0 -0 -0 -0 -0 -0 -0 -0
-0 -0 -0 -0 -0 -0 -0 -0 -0 -0 -0 -0 -0 -0 -0 -167 -225 -233 -264 -0 -0 -0 -0 -0 -0 -0 -0 -0 -0 -0 -0 -0 -0 -0 -0 -0 -0 -0 -0 -0 -0 -0 -0 -0 -0 -0 -0 -0 -0
-0 -0 -0 -0 -0 -0 -0 -0 -0 -0 -0 -0 -0 -0 -0 -0 -236 -322 -0 -0 -0 -0 -0 -0 -0 -0 -0 -0 -0 -0 -0 -0 -0 -0 -0 -0 -0 -0 -0 -0 -0 -0 -0 -0 -0 -0 -0 -0 -0
-0 -0 -0 -0 -0 -0 -0 -0 -0 -0 -0 -0 -0 -0 -0 -0 -0 -0 -0 -0 -0 -0 -0 -0 -0 -0 -0 -0 -0 -0 -0 -0 -0 -0 -0 -0 -0 -0 -0 -0 -0 -0 -0 -0 -0 -0 -0 -0 -0
-0 -0 -0 -0 -0 -0 -0 -0 -0 -0 -0 -0 -0 -0 -0 -0 -0 -0 -0 -0 -0 -0 -0 -0 -0 -0 -0 -0 -0 -0 -0 -0 -0 -0 -0 -0 -0 -0 -0 -0 -0 -0 -0 -0 -0 -0 -0 -0 -0
-0 -0 -0 -0 -0 -0 -0 -0 -0 -0 -0 -0 -0 -0 -0 -0 -0 -0 -0 -0 -0 -0 -0 -0 -0 -0 -0 -0 -0 -0 -0 -0 -0 -0 -0 -0 -0 -0 -0 -0 -0 -0 -0 -0 -0 -0 -0 -0 -0
-0 -0 -0 -0 -0 -0 -0 -0 -0 -0 -0 -0 -0 -0 -0 -0 -0 -0 -0 -0 -0 -0 -0 -0 -0 -0 -0 -0 -0 -0 -0 -0 -0 -0 -0 -0 -0 -0 -0 -0 -0 -0 -0 -0 -0 -0 -0 -0 -0
-0 -0 -0 -0 -0 -0 -0 -0 -0 -0 -0 -0 -0 -0 -0 -0 -0 -0 -0 -0 -0 -0 -0 -0 -0 -0 -0 -0 -0 -0 -0 -0 -0 -0 -0 -0 -0 -0 -0 -0 -0 -0 -0 -0 -0 -0 -0 -0 -0
-0 -0 -0 -0 -0 -0 -0 -0 -0 -0 -0 -0 -0 -0 -0 -0 -0 -0 -0 -0 -0 -0 -0 -0 -0 -0 -0 -0 -0 -0 -0 -0 -0 -0 -0 -0 -0 -0 -0 -0 -0 -0 -0 -0 -0 -0 -0 -0 -0
-0 -0 -0 -0 -0 -0 -0 -0 -0 -0 -0 -0 -0 -0 -0 -0 -0 -0 -0 -0 -0 -0 -0 -0 -0 -0 -0 -0 -0 -0 -0 -0 -0 -0 -0 -0 -0 -0 -0 -0 -0 -0 -0 -0 -0 -0 -0 -0 -0
-0 -0 -0 -0 -0 -0 -0 -0 -0 -0 -0 -0 -0 -0 -0 -0 -0 -0 -0 -0 -0 -0 -0 -0 -0 -0 -0 -0 -0 -0 -0 -0 -0 -0 -0 -0 -0 -0 -0 -0 -0 -0 -0 -0 -0 -0 -0 -0 -0
-0 -0 -0 -0 -0 -0 -0 -0 -0 -0 -0 -0 -0 -0 -0 -0 -0 -0 -0 -0 -0 -0 -0 -0 -0 -0 -0 -0 -0 -0 -0 -0 -0 -0 -0 -0 -0 -0 -0 -0 -0 -0 -0 -0 -0 -0 -0 -0 -0
-0 -0 -0 -0 -0 -0 -0 -0 -0 -0 -0 -0 -0 -0 -0 -0 -0 -0 -0 -0 -0 -0 -0 -0 -0 -0 -0 -0 -0 -0 -0 -0 -0 -0 -0 -0 -0 -0 -0 -0 -0 -0 -0 -0 -0 -0 -0 -0 -0
-0 -0 -0 -0 -0 -0 -0 -0 -0 -0 -0 -0 -0 -0 -0 -0 -0 -0 -0 -0 -0 -0 -0 -0 -0 -0 -0 -0 -0 -0 -0 -0 -0 -0 -0 -0 -0 -0 -0 -0 -0 -0 -0 -0 -0 -0 -0 -0 -0
-0 -0 -0 -0 -0 -0 -0 -0 -0 -0 -0 -0 -0 -0 -0 -0 -0 -0 -0 -0 -0 -0 -0 -0 -0 -0 -0 -0 -0 -0 -0 -0 -0 -0 -0 -0 -0 -0 -0 -0 -0 -0 -0 -0 -0 -0 -0 -0 -0
-0 -0 -0 -0 -0 -0 -0 -0 -0 -0 -0 -0 -0 -0 -0 -0 -0 -0 -0 -0 -0 -0 -0 -0 -0 -0 -0 -0 -0 -0 -0 -0 -0 -0 -0 -0 -0 -0 -0 -0 -0 -0 -0 -0 -0 -0 -0 -0 -0
-0 -0 -0 -0 -0 -0 -0 -0 -0 -0 -0 -0 -0 -0 -0 -0 -0 -0 -0 -0 -0 -0 -0 -0 -0 -0 -0 -0 -0 -0 -0 -0 -0 -0 -0 -0 -0 -0 -0 -0 -0 -0 -0 -0 -0 -0 -0 -0 -0
-0 -0 -0 -0 -0 -0 -0 -0 -0 -0 -0 -0 -0 -0 -0 -0 -0 -0 -0 -0 -0 -0 -0 -0 -0 -0 -0 -0 -0 -0 -0 -0 -0 -0 -0 -0 -0 -0 -0 -0 -0 -0 -0 -0 -0 -0 -0 -0 -0
-0 -0 -0 -0 -0 -0 -0 -0 -0 -0 -0 -0 -0 -0 -0 -0 -0 -0 -0 -0 -0 -0 -0 -0 -0 -0 -0 -0 -0 -0 -0 -0 -0 -0 -0 -0 -0 -0 -0 -0 -0 -0 -0 -0 -0 -0 -0 -0 -0
-0 -0 -0 -0 -0 -0 -0 -0 -0 -0 -0 -0 -0 -0 -0 -0 -0 -0 -0 -0 -0 -0 -0 -0 -0 -0 -0 -0 -0 -0 -0 -0 -0 -0 -0 -0 -0 -0 -0 -0 -0 -0 -0 -0 -0 -0 -0 -0 -0
Wind_Speed
15 16 16 18 22 23 26 24 22 23 21 16 15 15 16 18 17 20 14 10 3 2 2 3 5 6 6 6 7 8 8 9 9 10 10 10 11 11 12 12 13 13 14 14 15 15 15 16 16
14 14 16 18 25 28 28 22 23 23 19 15 15 16 17 18 17 16 11 8 3 1 1 3 3 4 5 6 6 7 7 8 9 9 10 10 11 12 12 13 13 14 15 15 16 16 17 18 18
13 15 18 23 28 30 28 23 24 19 21 17 17 15 16 16 15 11 13 4 3 2 2 2 3 4 5 6 6 7 7 8 9 10 10 11 12 13 13 14 15 16 16 17 18 18 19 19 20
15 16 20 29 32 27 24 20 16 15 15 16 16 18 17 16 14 12 8 3 3 3 2 2 3 4 4 5 6 6 7 9 10 10 11 12 12 13 14 15 16 17 18 18 19 20 20 21 21
14 17 26 32 34 31 25 25 19 19 21 20 18 21 19 16 13 7 5 5 3 4 4 3 3 3 4 5 5 6 8 9 10 11 12 13 14 14 15 16 17 17 18 19 20 21 21 22 22
18 21 29 35 35 30 29 25 24 27 26 24 23 22 22 18 12 8 7 6 5 3 5 5 3 4 4 5 5 7 8 10 10 11 12 13 14 15 15 16 17 18 19 20 21 22 22 23 24
20 23 33 34 35 35 29 22 28 30 30 29 21 25 23 18 13 9 7 6 4 4 5 5 5 4 4 5 6 7 9 10 11 11 12 13 14 15 16 17 18 19 20 22 23 24 25 26 26
19 24 32 33 36 36 25 23 27 27 30 22 17 26 26 19 12 9 9 8 8 6 5 5 4 4 5 6 7 8 9 10 11 12 13 13 14 15 17 18 19 20 22 23 24 26 27 28 29
18 27 34 32 31 30 21 24 23 21 23 21 21 25 23 12 9 11 9 9 7 9 7 7 5 5 6 6 6 8 9 10 11 12 13 14 15 16 17 19 20 22 23 25 26 28 29 31 31
20 27 31 29 27 31 27 26 26 25 24 24 24 23 21 12 10 10 8 8 8 7 7 6 5 6 5 6 7 8 10 11 12 13 13 14 16 17 18 20 22 23 25 27 28 29 31 31 31
24 30 28 27 25 27 30 30 26 27 30 26 26 25 18 13 12 10 11 11 9 7 8 7 5 6 5 6 8 10 11 12 13 14 15 16 17 18 20 21 23 25 27 28 29 30 30 32 32
29 29 28 26 33 27 26 25 27 26 28 24 26 24 19 13 11 10 10 9 9 10 9 8 7 6 7 8 9 10 11 13 14 15 16 16 18 19 21 23 24 26 27 28 30 30 32 32 33
27 30 27 28 26 31 29 32 32 29 27 28 27 24 22 17 15 16 17 15 12 10 10 10 8 7 8 9 11 13 13 13 14 14 16 17 19 21 22 23 24 26 27 28 29 30 31 32 33
23 27 32 31 31 26 35 41 31 33 35 36 32 32 26 20 15 19 19 15 14 14 11 10 11 11 10 10 11 13 13 13 14 14 16 18 19 21 23 24 25 25 26 27 28 30 32 33 34
27 33 33 31 28 31 29 40 35 40 36 38 36 35 31 27 20 15 17 16 17 17 14 14 14 13 11 10 11 11 13 13 13 14 16 18 20 21 23 24 25 26 26 28 29 31 32 33 34
25 25 31 25 24 26 19 48 28 30 34 44 45 43 38 32 20 28 26 23 22 19 16 17 16 13 11 10 10 11 13 13 13 15 17 19 20 21 23 24 25 26 27 29 30 31 33 34 36
27 33 30 31 21 23 23 38 34 35 36 45 44 44 46 44 38 38 36 25 21 21 20 17 15 11 9 9 11 12 12 13 14 15 16 18 20 22 23 24 26 27 28 29 30 32 34 37 39
31 32 31 31 25 25 31 41 39 34 33 40 42 45 47 46 50 45 40 31 27 23 20 17 14 11 10 10 11 13 13 13 14 14 16 18 21 22 23 25 26 27 29 30 31 34 34 37 40
31 33 36 32 28 31 35 40 42 40 36 44 46 48 46 45 43 42 40 32 26 23 19 16 14 12 10 12 12 14 13 13 14 15 16 18 20 22 23 24 26 27 29 31 32 34 36 36 39
34 39 43 40 35 33 40 46 49 47 44 45 48 48 51 50 45 37 37 29 24 21 20 18 16 13 11 10 13 14 11 13 13 14 15 19 20 22 22 24 26 27 29 31 33 34 35 34 37
32 36 39 40 36 36 42 48 43 37 37 40 42 46 47 48 47 43 32 26 25 23 20 19 18 15 12 10 9 10 11 12 13 14 16 19 20 21 22 24 25 27 28 31 31 32 33 34 31
36 30 33 36 35 39 29 48 42 38 38 37 40 40 44 43 40 37 30 23 23 22 21 20 18 15 12 10 9 8 9 10 12 13 15 17 19 21 22 24 25 26 27 29 29 29 28 28 29
29 26 29 31 34 37 35 41 39 33 37 40 38 35 38 38 37 34 27 22 23 23 22 21 19 16 13 11 9 9 9 11 10 13 15 17 19 21 22 24 25 26 26 27 27 26 26 25 24
23 25 27 28 32 45 38 38 42 33 33 35 31 28 30 33 34 35 31 26 23 22 22 20 19 16 14 12 11 9 8 7 9 12 14 16 18 19 22 23 25 25 25 25 24 23 22 21 21
20 25 34 37 38 47 34 40 46 39 38 36 38 35 31 28 28 31 29 25 23 22 21 20 19 17 15 13 11 9 8 8 9 10 13 15 17 19 21 22 24 24 23 23 22 22 21 20 19
15 21 28 39 39 40 34 41 32 31 35 34 34 33 32 32 31 29 29 28 26 24 23 22 20 19 16 14 11 10 9 9 10 11 12 14 16 18 19 21 23 22 22 22 21 20 20 19 20
21 21 23 31 34 43 42 41 40 38 35 28 27 27 29 30 31 32 28 27 25 25 24 22 21 19 16 14 12 11 10 9 10 11 12 12 14 16 17 20 21 21 22 21 20 20 21 20 19
22 20 24 26 37 42 39 41 40 35 29 25 27 26 26 26 28 30 29 26 25 25 24 22 21 19 17 14 12 11 10 10 10 10 10 12 13 14 16 17 19 21 22 21 21 20 19 18 17
24 25 24 24 30 39 44 39 26 26 26 26 26 24 24 24 26 26 27 25 23 23 23 22 20 18 16 14 13 12 11 10 10 10 10 11 11 13 13 14 16 19 20 20 20 20 19 19 19
28 30 26 32 33 35 41 52 38 41 33 28 24 26 29 31 32 28 25 24 22 21 22 22 20 18 16 14 13 12 11 11 10 10 9 9 10 12 12 11 13 16 17 18 20 21 21 20 21
Wind_Direction
302 306 310 302 287 287 281 286 290 290 296 304 301 294 288 286 286 285 304 312 316 340 19 36 31 38 34 24 23 23 17 19 12 10 5 358 2 359 354 350 346 345 342 338 333 327 324 323 325
301 305 303 294 279 276 280 288 288 289 292 308 308 297 291 287 288 297 303 307 343 12 341 339 357 5 7 8 8 8 5 6 4 1 358 357 2 2 357 351 346 340 336 334 333 331 324 321 319
298 300 287 281 275 272 281 289 285 286 299 295 296 300 296 296 295 299 300 319 319 316 305 325 335 345 347 354 2 3 4 359 359 353 352 352 353 350 345 340 335 333 330 327 327 326 324 323 321
288 290 288 273 271 278 278 297 295 290 304 302 301 295 297 297 299 300 304 313 311 304 310 308 325 337 345 350 351 351 347 349 346 344 345 349 350 345 339 334 331 328 326 325 324 324 323 322 320
288 289 275 273 272 276 281 278 290 285 291 295 298 289 294 299 307 319 305 297 297 303 310 314 311 323 330 337 340 341 341 339 341 340 342 341 343 343 340 334 331 334 332 328 325 323 322 322 322
276 279 275 269 273 279 277 278 283 279 283 290 292 288 288 295 300 305 302 300 297 287 305 298 307 314 322 334 343 337 335 336 340 340 340 339 337 339 341 339 334 329 327 327 327 327 326 325 322
273 274 272 274 276 275 279 284 274 278 282 283 293 283 286 288 290 295 298 300 303 301 279 276 286 304 314 327 330 334 335 337 339 341 342 343 338 335 336 335 332 330 327 325 324 322 320 318 317
279 279 275 274 275 276 289 282 282 279 281 294 289 281 279 284 281 292 294 284 280 279 273 266 275 293 300 314 325 331 338 339 340 340 340 341 340 335 333 331 329 327 324 321 318 316 315 313 313
285 276 273 275 276 278 292 285 285 291 285 289 285 279 286 285 274 283 279 271 270 270 267 264 266 278 289 309 322 333 338 338 338 336 337 337 336 334 329 326 322 320 319 318 317 315 314 312 312
278 275 275 282 279 280 284 281 283 284 286 286 285 281 283 273 266 267 251 236 250 256 258 254 255 265 284 300 313 321 326 327 329 330 328 326 323 319 319 321 323 324 322 321 320 318 317 316 315
282 277 280 285 284 283 279 277 282 282 277 281 278 273 276 271 266 261 259 251 243 244 249 252 252 265 282 304 311 311 315 319 318 315 311 312 313 316 322 326 325 326 324 323 321 319 318 314 314
281 284 282 289 276 284 283 284 281 278 278 280 276 276 272 265 258 250 242 240 233 239 241 246 256 266 286 300 306 308 306 305 303 305 307 310 314 320 324 327 329 329 328 326 324 320 319 318 318
285 285 289 286 281 280 281 276 278 277 275 273 277 277 272 267 264 266 262 259 245 234 241 246 252 265 282 292 292 292 296 297 304 307 312 316 320 323 327 330 332 331 331 329 326 324 323 323 322
298 293 287 285 283 289 277 272 275 273 270 266 269 267 271 269 259 262 260 249 239 244 239 244 253 262 271 281 288 291 294 298 304 312 316 321 324 325 327 330 333 334 333 332 331 327 324 324 325
295 287 288 285 289 283 285 272 271 268 269 265 264 262 265 267 266 251 254 245 240 244 243 245 250 258 268 279 289 294 295 302 308 316 322 326 328 329 330 332 332 332 333 332 330 328 329 329 330
297 298 290 299 291 286 282 261 282 275 267 260 258 257 260 264 261 260 257 252 247 244 240 245 251 256 266 278 289 294 297 303 311 317 323 327 331 332 332 331 331 331 331 332 332 333 332 332 330
290 284 289 293 299 292 280 277 278 271 269 260 259 255 253 255 257 253 250 252 245 241 241 241 247 249 259 277 290 295 300 303 311 320 327 331 333 333 332 331 330 329 332 335 335 334 334 330 329
284 282 286 290 299 293 284 276 272 278 276 265 262 254 253 251 239 247 249 251 248 243 240 239 242 245 256 274 287 293 298 304 314 322 327 330 332 332 332 331 331 332 332 334 336 334 336 332 330
285 284 282 289 297 292 284 278 271 273 276 266 260 255 253 251 252 251 249 249 245 241 233 227 229 236 244 267 279 287 291 301 311 321 328 331 332 333 333 333 333 334 333 335 337 336 335 336 335
281 279 277 284 289 287 283 276 267 263 271 268 260 256 248 248 252 255 249 247 235 229 228 225 227 226 237 257 279 288 294 301 311 321 328 331 333 335 336 335 335 337 336 337 338 338 338 340 341
283 279 280 279 289 288 284 275 277 276 274 271 266 259 255 250 249 249 251 244 235 229 222 221 225 221 231 250 272 290 301 306 309 317 324 329 334 337 338 338 338 338 339 339 340 342 343 342 346
283 287 285 281 283 279 293 273 278 278 273 275 271 265 257 254 253 251 248 240 223 228 231 228 225 221 228 237 253 264 283 295 308 318 326 331 335 337 339 340 341 342 342 343 344 346 348 350 349
289 293 287 286 282 282 281 277 275 285 276 270 275 273 262 257 252 250 246 238 236 233 228 230 226 226 229 232 247 263 281 298 311 319 326 330 334 338 340 343 345 345 347 348 349 352 353 356 359
303 298 293 288 282 272 277 276 273 284 282 278 285 284 274 265 257 252 250 245 236 233 231 227 222 223 225 232 248 258 266 286 305 317 326 331 335 340 344 347 347 351 353 355 358 0 2 5 5
303 294 284 278 273 268 279 273 269 272 278 278 279 278 275 275 267 255 248 241 235 225 226 226 221 222 228 236 246 253 263 280 300 316 326 331 334 340 344 349 351 354 0 4 5 7 11 11 12
311 298 285 276 273 273 280 267 277 287 281 283 285 282 279 273 267 263 254 247 240 231 227 226 222 225 228 234 239 251 263 280 299 314 325 331 337 342 348 353 356 4 9 12 16 16 17 25 20
308 298 298 287 285 274 271 272 281 281 281 292 294 297 286 280 271 261 260 252 245 236 227 222 220 225 225 231 238 247 259 274 295 312 323 331 339 344 353 359 7 15 22 28 33 34 36 41 43
300 310 298 288 278 272 271 271 273 280 286 297 299 299 300 296 286 268 262 259 251 241 234 227 222 216 222 229 236 241 253 273 293 307 318 326 337 345 354 4 16 24 34 47 50 52 58 63 62
295 291 294 295 284 275 270 267 282 292 297 292 297 302 306 306 302 282 265 264 255 245 232 225 222 221 224 229 236 239 252 271 288 300 311 321 335 341 350 4 16 25 36 47 49 55 57 53 49
290 285 284 280 282 279 274 263 278 281 285 291 293 295 301 299 297 288 274 266 257 245 233 225 223 223 225 231 232 242 256 270 281 291 302 314 325 331 338 355 10 17 25 30 29 33 39 42 39